Lid_Strength_Index
1 0 -1 -1 -2 -2 -2 -2 -1 -2 -2 -2 -2 -2 -2 -2 -2 -2 -2 -2 -2 -2 -2 -2 -2 -2 -2 -2 -2 -2 -2 -1 -1 -1 -2 -2 -2 -2 -2 -1 -1 -0 -2
1 -0 -1 -1 -2 -2 -2 -2 -1 -1 -2 -2 -2 -2 -2 -2 -2 -2 -2 -1 -2 -2 -2 -2 -2 -2 -2 -2 -2 -2 -1 -1 -1 -1 -1 -1 -2 -2 -2 -1 -1 -1 -1
0 -0 -0 -1 -2 -1 -2 -2 -2 -1 -2 -2 -2 -2 -2 -2 -2 -2 -2 -2 -2 -2 -2 -2 -2 -2 -2 -2 -1 -1 -1 -1 -1 -2 -1 1 0 -1 -1 -1 -1 -1 -1
0 -0 -0 -1 -2 -2 -2 -2 -2 -1 -2 -2 -2 -2 -2 -2 -2 -2 -2 -2 -2 -2 -2 -2 -2 -2 -1 -1 -1 -1 -1 -2 -2 -1 0 -0 0 -1 -2 -2 -2 -2 -2
0 -0 -0 -1 -1 -2 -2 -2 -2 -2 -2 -2 -2 -2 -2 -2 -1 -2 -2 -2 -2 -2 -2 -2 -2 -1 -1 -1 -1 -1 -2 -2 -1 -1 1 1 1 -1 -2 -2 -2 -2 -2
0 -0 -0 -1 -1 -2 -2 -2 -2 -2 -2 -2 -2 -2 -2 -2 -2 -2 -2 -2 -2 -2 -2 -2 -1 -1 -1 -1 -1 -1 -2 -2 -1 1 1 -0 -0 -2 -2 -2 -2 -2 -2
0 -0 -0 -0 -1 -1 -2 -2 -2 -2 -2 -2 -2 -2 -2 -2 -2 -2 -2 -2 -2 -2 -2 -1 -1 -1 -1 -1 -1 -2 -2 -1 1 1 1 0 -0 -2 -2 -2 -2 -2 -1
1 0 -0 1 -0 -1 -1 -1 -2 -2 -2 -1 -2 -2 -2 -2 -2 -2 -2 -2 -2 -2 -1 -1 -1 -1 -1 -1 -1 -1 -1 -1 1 1 1 -0 -1 -2 -2 -2 -2 -1 -1
0 0 -0 -0 0 1 -0 -1 -1 -1 -1 -1 -2 -2 -2 -2 -2 -2 -2 -2 -1 -1 -1 -1 -1 -1 -1 -1 -1 -1 -1 0 2 1 -0 -0 -2 -2 -2 -2 -1 -0 0
1 0 1 -0 -0 -0 -0 1 0 -1 -1 -1 -1 -1 -1 -1 -1 -1 -1 -1 -1 -1 -1 -1 -2 -2 -2 -1 -1 0 1 1 2 0 -0 -1 -2 -2 -2 -1 -1 -0 1
1 1 0 0 0 -0 -0 1 1 1 1 1 1 1 0 0 0 0 0 -1 -1 -1 -1 -1 -2 -1 -1 -0 1 2 2 3 2 0 -0 -1 -2 -2 -2 -1 -0 1 1
2 1 0 0 0 0 -0 0 -0 0 0 1 2 2 1 1 1 0 1 1 -0 -0 -1 -1 -1 -0 2 4 4 4 5 4 3 2 1 -1 -1 -1 -1 0 1 2 2
2 1 1 0 -0 -0 -0 0 0 0 1 1 2 2 2 1 1 1 1 1 1 1 1 2 3 3 4 4 5 6 6 5 5 3 2 -1 -1 -1 0 1 2 3 3
2 2 1 0 0 0 0 -0 0 1 1 2 2 2 2 3 2 2 2 2 2 1 4 4 4 5 5 5 6 7 7 6 5 4 3 1 -0 -0 1 1 2 3 3
3 2 1 1 0 0 1 1 0 0 1 2 2 2 2 3 3 2 2 2 2 1 5 5 6 6 6 5 6 7 8 7 6 5 5 3 2 1 2 2 2 3 3
2 2 1 1 0 0 0 0 0 1 1 1 2 3 3 3 3 2 2 2 1 2 5 5 7 8 8 7 7 8 10 10 9 9 8 6 3 3 3 3 3 4 4
2 2 1 1 0 0 0 0 0 -0 0 1 1 2 3 3 3 2 1 1 1 6 5 7 8 8 8 7 8 10 10 11 11 11 11 10 9 5 5 5 5 5 5
2 2 1 1 1 1 1 1 1 1 1 1 2 2 3 2 3 2 2 2 3 6 6 8 8 9 9 9 9 11 11 12 12 12 13 13 12 12 8 7 7 7 7
2 2 2 1 1 1 1 2 1 2 2 2 2 3 4 2 2 2 2 3 5 6 6 7 9 9 11 10 11 11 12 13 13 14 15 15 14 14 14 10 9 9 8
2 2 2 1 1 1 1 2 2 2 2 3 2 3 2 3 1 3 4 4 6 6 7 9 11 11 11 10 11 12 12 13 14 15 15 16 16 16 17 16 16 14 10
2 2 3 2 1 1 1 3 3 4 5 4 3 3 3 3 2 3 5 6 7 7 7 10 11 12 12 11 12 13 13 13 15 15 16 16 17 17 17 17 18 18 18
3 2 3 2 1 1 2 3 3 4 7 6 7 6 5 5 5 5 6 7 8 8 10 11 11 13 12 12 13 13 15 15 15 15 15 16 17 17 18 18 19 18 18
3 3 2 2 2 2 2 3 7 9 9 10 10 10 10 9 9 8 8 9 9 9 10 11 12 13 13 13 12 12 16 17 16 15 16 17 18 18 18 18 18 18 18
3 2 2 2 2 2 2 5 6 5 7 9 10 12 12 12 12 11 11 11 11 10 11 11 11 12 12 15 14 14 14 14 16 18 16 17 17 18 18 18 18 18 18
7 2 2 2 2 2 3 4 5 5 6 10 13 13 14 13 13 12 12 12 13 13 13 13 13 13 13 14 14 15 15 14 14 16 18 18 16 17 17 18 18 18 17
8 3 2 2 2 2 4 4 4 5 10 11 13 13 14 14 14 13 14 14 14 14 14 14 14 14 14 15 14 14 15 15 16 16 18 18 18 17 17 17 17 17 17